Wetterdaten: Woche 05.02.18 - 11.02.18 (KW6)
Datum Zeit Temp. Aussen Temp. o. S. +5cm Feuchte Auss BlattFeu 1 Luftdruck Regen Sonnenschein Regendauer Solar Windben Empfang
05.02.2018 00:00 -1,6 C -2,3 C -3,3 C 91 % 0 lf 1024,7 hPa 0,0 l/m 0,00 h 0,00 h 0 W/m 13,4 km/h (3 Bft) 95,54 %
05.02.2018 01:00 -1,6 C -2,4 C -3,4 C 92 % 0 lf 1024,7 hPa 0,0 l/m 0,00 h 0,00 h 0 W/m 12,4 km/h (3 Bft) 95,43 %
05.02.2018 02:00 -1,8 C -2,6 C -3,9 C 93 % 1 lf 1024,6 hPa 0,0 l/m 0,00 h 0,00 h 0 W/m 12,3 km/h (3 Bft) 96,55 %
05.02.2018 03:00 -1,8 C -2,2 C -3,6 C 94 % 0 lf 1024,5 hPa 0,0 l/m 0,00 h 0,00 h 0 W/m 17,1 km/h (3 Bft) 97,30 %
05.02.2018 04:00 -1,9 C -2,4 C -4,0 C 94 % 0 lf 1024,7 hPa 0,0 l/m 0,00 h 0,00 h 0 W/m 14,3 km/h (3 Bft) 96,10 %
05.02.2018 05:00 -2,3 C -3,1 C -4,2 C 94 % 0 lf 1025,1 hPa 0,0 l/m 0,00 h 0,00 h 0 W/m 13,7 km/h (3 Bft) 96,98 %
05.02.2018 06:00 -2,5 C -3,2 C -4,2 C 94 % 0 lf 1025,2 hPa 0,0 l/m 0,00 h 0,00 h 0 W/m 15,8 km/h (3 Bft) 95,44 %
05.02.2018 07:00 -2,6 C -3,0 C -4,3 C 94 % 0 lf 1025,4 hPa 0,0 l/m 0,00 h 0,00 h 0 W/m 17,0 km/h (3 Bft) 96,96 %
05.02.2018 08:00 -2,6 C -2,6 C -4,0 C 93 % 0 lf 1025,7 hPa 0,0 l/m 0,00 h 0,00 h 18 W/m 15,8 km/h (3 Bft) 97,92 %
05.02.2018 09:00 -2,1 C -0,7 C -2,8 C 92 % 0 lf 1025,9 hPa 0,0 l/m 0,13 h 0,00 h 83 W/m 18,5 km/h (3 Bft) 94,84 %
05.02.2018 10:00 -0,5 C 5,3 C -1,5 C 88 % 1 lf 1025,6 hPa 0,0 l/m 0,97 h 0,00 h 249 W/m 20,8 km/h (4 Bft) 95,75 %
05.02.2018 11:00 1,9 C 7,9 C 0,1 C 79 % 12 lf 1025,3 hPa 0,2 l/m 1,00 h 0,00 h 346 W/m 21,0 km/h (4 Bft) 95,16 %
05.02.2018 12:00 3,5 C 11,3 C 1,1 C 73 % 2 lf 1024,9 hPa 0,0 l/m 1,00 h 0,00 h 380 W/m 23,2 km/h (4 Bft) 96,35 %
05.02.2018 13:00 4,4 C 11,2 C 2,0 C 69 % 0 lf 1024,4 hPa 0,2 l/m 1,00 h 0,00 h 365 W/m 25,2 km/h (4 Bft) 96,34 %
05.02.2018 14:00 5,1 C 11,9 C 2,7 C 69 % 0 lf 1023,6 hPa 0,0 l/m 1,00 h 0,00 h 297 W/m 24,2 km/h (4 Bft) 95,71 %
05.02.2018 15:00 4,8 C 9,1 C 2,3 C 67 % 0 lf 1023,1 hPa 0,0 l/m 1,00 h 0,00 h 179 W/m 27,6 km/h (4 Bft) 98,36 %
05.02.2018 16:00 3,3 C 3,0 C 0,9 C 73 % 0 lf 1022,5 hPa 0,0 l/m 0,10 h 0,00 h 57 W/m 24,6 km/h (4 Bft) 95,58 %
05.02.2018 17:00 1,9 C 1,1 C -0,6 C 79 % 0 lf 1022,1 hPa 0,0 l/m 0,00 h 0,00 h 13 W/m 24,9 km/h (4 Bft) 94,85 %
05.02.2018 18:00 0,7 C -0,0 C -1,6 C 82 % 0 lf 1022,2 hPa 0,0 l/m 0,00 h 0,00 h 0 W/m 26,3 km/h (4 Bft) 98,21 %
05.02.2018 19:00 -0,1 C -0,8 C -2,4 C 84 % 0 lf 1022,2 hPa 0,0 l/m 0,00 h 0,00 h 0 W/m 22,0 km/h (4 Bft) 96,01 %
05.02.2018 20:00 -0,8 C -1,5 C -2,9 C 85 % 0 lf 1021,8 hPa 0,0 l/m 0,00 h 0,00 h 0 W/m 16,8 km/h (3 Bft) 97,36 %
05.02.2018 21:00 -1,3 C -1,8 C -3,4 C 85 % 0 lf 1021,8 hPa 0,0 l/m 0,00 h 0,00 h 0 W/m 14,0 km/h (3 Bft) 93,78 %
05.02.2018 22:00 -1,7 C -2,1 C -3,8 C 86 % 0 lf 1021,6 hPa 0,0 l/m 0,00 h 0,00 h 0 W/m 9,7 km/h (2 Bft) 97,94 %
05.02.2018 23:00 -2,1 C -2,2 C -4,0 C 87 % 0 lf 1021,0 hPa 0,0 l/m 0,00 h 0,00 h 0 W/m 12,0 km/h (2 Bft) 95,94 %
06.02.2018 00:00 -2,0 C -2,0 C -3,5 C 84 % 0 lf 1020,3 hPa 0,0 l/m 0,00 h 0,00 h 0 W/m 16,8 km/h (3 Bft) 97,29 %
06.02.2018 01:00 -2,3 C -3,8 C -5,1 C 83 % 0 lf 1019,4 hPa 0,0 l/m 0,00 h 0,00 h 0 W/m 9,2 km/h (2 Bft) 95,76 %
06.02.2018 02:00 -3,2 C -4,1 C -5,5 C 86 % 0 lf 1018,5 hPa 0,0 l/m 0,00 h 0,00 h 0 W/m 11,5 km/h (2 Bft) 93,94 %
06.02.2018 03:00 -3,4 C -3,8 C -5,2 C 88 % 0 lf 1017,5 hPa 0,0 l/m 0,00 h 0,00 h 0 W/m 13,5 km/h (3 Bft) 99,01 %
06.02.2018 04:00 -3,7 C -4,3 C -5,6 C 88 % 0 lf 1016,6 hPa 0,0 l/m 0,00 h 0,00 h 0 W/m 11,8 km/h (2 Bft) 96,58 %
06.02.2018 05:00 -3,7 C -3,9 C -4,8 C 89 % 0 lf 1016,2 hPa 0,0 l/m 0,00 h 0,00 h 0 W/m 16,5 km/h (3 Bft) 96,20 %
06.02.2018 06:00 -3,3 C -3,3 C -4,4 C 89 % 0 lf 1015,7 hPa 0,0 l/m 0,00 h 0,00 h 0 W/m 19,2 km/h (3 Bft) 95,78 %
06.02.2018 07:00 -3,1 C -3,3 C -4,1 C 88 % 0 lf 1015,2 hPa 0,0 l/m 0,00 h 0,00 h 0 W/m 21,3 km/h (4 Bft) 96,72 %
06.02.2018 08:00 -3,3 C -3,6 C -4,5 C 88 % 0 lf 1015,0 hPa 0,0 l/m 0,00 h 0,00 h 18 W/m 19,8 km/h (4 Bft) 96,02 %
06.02.2018 09:00 -2,9 C -0,8 C -2,8 C 88 % 0 lf 1014,6 hPa 0,0 l/m 0,60 h 0,00 h 129 W/m 18,8 km/h (3 Bft) 96,82 %
06.02.2018 10:00 -1,2 C 3,4 C -1,6 C 85 % 0 lf 1014,3 hPa 0,0 l/m 0,53 h 0,00 h 168 W/m 17,1 km/h (3 Bft) 95,25 %
06.02.2018 11:00 -0,6 C 0,1 C -0,6 C 82 % 0 lf 1013,8 hPa 0,0 l/m 0,00 h 0,00 h 94 W/m 15,9 km/h (3 Bft) 97,65 %
06.02.2018 12:00 -0,3 C 0,7 C 0,0 C 82 % 0 lf 1013,3 hPa 0,0 l/m 0,00 h 0,00 h 100 W/m 16,0 km/h (3 Bft) 96,95 %
06.02.2018 13:00 0,4 C 1,8 C 0,9 C 80 % 0 lf 1012,7 hPa 0,0 l/m 0,00 h 0,00 h 136 W/m 16,9 km/h (3 Bft) 94,62 %
06.02.2018 14:00 0,7 C 1,3 C 0,3 C 79 % 0 lf 1012,2 hPa 0,0 l/m 0,00 h 0,00 h 73 W/m 15,1 km/h (3 Bft) 98,86 %
06.02.2018 15:00 0,6 C 1,1 C 0,0 C 80 % 0 lf 1011,8 hPa 0,0 l/m 0,00 h 0,00 h 58 W/m 16,9 km/h (3 Bft) 97,59 %
06.02.2018 16:00 0,4 C 0,6 C -0,6 C 80 % 0 lf 1011,8 hPa 0,0 l/m 0,00 h 0,00 h 29 W/m 15,9 km/h (3 Bft) 94,03 %
06.02.2018 17:00 0,3 C 0,1 C -1,0 C 82 % 0 lf 1011,8 hPa 0,0 l/m 0,00 h 0,00 h 12 W/m 12,9 km/h (3 Bft) 98,51 %
06.02.2018 18:00 -0,2 C -0,6 C -1,7 C 85 % 0 lf 1012,1 hPa 0,0 l/m 0,00 h 0,00 h 0 W/m 13,7 km/h (3 Bft) 97,22 %
06.02.2018 19:00 -0,5 C -0,6 C -1,7 C 87 % 0 lf 1012,4 hPa 0,0 l/m 0,00 h 0,00 h 0 W/m 7,8 km/h (2 Bft) 96,09 %
06.02.2018 20:00 -0,5 C -0,6 C -1,7 C 86 % 0 lf 1012,5 hPa 0,0 l/m 0,00 h 0,00 h 0 W/m 9,3 km/h (2 Bft) 95,87 %
06.02.2018 21:00 -0,6 C -0,8 C -1,7 C 85 % 0 lf 1012,4 hPa 0,0 l/m 0,00 h 0,00 h 0 W/m 10,0 km/h (2 Bft) 95,94 %
06.02.2018 22:00 -0,8 C -1,1 C -1,7 C 85 % 0 lf 1012,7 hPa 0,0 l/m 0,00 h 0,00 h 0 W/m 12,6 km/h (3 Bft) 96,37 %
06.02.2018 23:00 -0,9 C -1,1 C -1,8 C 86 % 0 lf 1013,0 hPa 0,0 l/m 0,00 h 0,00 h 0 W/m 14,7 km/h (3 Bft) 97,86 %
07.02.2018 00:00 -1,1 C -1,1 C -2,2 C 86 % 0 lf 1013,0 hPa 0,0 l/m 0,00 h 0,00 h 0 W/m 15,4 km/h (3 Bft) 95,15 %
07.02.2018 01:00 -1,3 C -1,5 C -2,2 C 87 % 0 lf 1012,9 hPa 0,0 l/m 0,00 h 0,00 h 0 W/m 16,5 km/h (3 Bft) 96,58 %
07.02.2018 02:00 -1,5 C -1,9 C -2,5 C 87 % 0 lf 1013,2 hPa 0,0 l/m 0,00 h 0,00 h 0 W/m 11,5 km/h (2 Bft) 95,95 %
07.02.2018 03:00 -1,8 C -2,2 C -2,8 C 88 % 0 lf 1013,2 hPa 0,0 l/m 0,00 h 0,00 h 0 W/m 10,4 km/h (2 Bft) 98,43 %
07.02.2018 04:00 -1,9 C -2,2 C -2,8 C 88 % 0 lf 1013,2 hPa 0,0 l/m 0,00 h 0,00 h 0 W/m 13,7 km/h (3 Bft) 95,81 %
07.02.2018 05:00 -2,1 C -2,2 C -3,1 C 89 % 0 lf 1013,3 hPa 0,0 l/m 0,00 h 0,00 h 0 W/m 12,7 km/h (3 Bft) 95,95 %
07.02.2018 06:00 -2,6 C -3,4 C -4,1 C 89 % 0 lf 1013,7 hPa 0,0 l/m 0,00 h 0,00 h 0 W/m 12,4 km/h (3 Bft) 97,31 %
07.02.2018 07:00 -3,3 C -4,1 C -4,8 C 90 % 0 lf 1013,9 hPa 0,0 l/m 0,00 h 0,00 h 4 W/m 10,7 km/h (2 Bft) 95,77 %
07.02.2018 08:00 -3,7 C -3,8 C -4,6 C 91 % 0 lf 1014,5 hPa 0,0 l/m 0,00 h 0,00 h 18 W/m 13,6 km/h (3 Bft) 97,80 %
07.02.2018 09:00 -3,7 C -3,1 C -4,4 C 91 % 0 lf 1014,9 hPa 0,0 l/m 0,00 h 0,00 h 54 W/m 14,0 km/h (3 Bft) 95,18 %
07.02.2018 10:00 -3,2 C 2,3 C -3,3 C 92 % 0 lf 1015,5 hPa 0,0 l/m 0,90 h 0,00 h 213 W/m 17,0 km/h (3 Bft) 95,76 %
07.02.2018 11:00 -1,5 C 7,2 C -1,8 C 89 % 0 lf 1015,7 hPa 0,0 l/m 1,00 h 0,00 h 332 W/m 15,7 km/h (3 Bft) 98,23 %
07.02.2018 12:00 -0,3 C 5,7 C -0,9 C 83 % 0 lf 1015,8 hPa 0,0 l/m 0,57 h 0,00 h 265 W/m 16,1 km/h (3 Bft) 97,16 %
07.02.2018 13:00 0,8 C 8,1 C 0,2 C 79 % 0 lf 1015,9 hPa 0,0 l/m 1,00 h 0,00 h 364 W/m 20,0 km/h (4 Bft) 96,34 %
07.02.2018 14:00 1,7 C 8,1 C 0,8 C 74 % 0 lf 1016,0 hPa 0,0 l/m 1,00 h 0,00 h 298 W/m 18,8 km/h (3 Bft) 95,37 %
07.02.2018 15:00 1,9 C 6,1 C 0,7 C 70 % 0 lf 1016,2 hPa 0,0 l/m 1,00 h 0,00 h 185 W/m 20,0 km/h (4 Bft) 95,38 %
07.02.2018 16:00 1,4 C 1,4 C -0,2 C 70 % 0 lf 1016,4 hPa 0,0 l/m 0,13 h 0,00 h 64 W/m 18,5 km/h (3 Bft) 97,94 %
07.02.2018 17:00 0,4 C -0,4 C -1,6 C 74 % 0 lf 1016,3 hPa 0,0 l/m 0,00 h 0,00 h 14 W/m 13,9 km/h (3 Bft) 96,30 %
07.02.2018 18:00 -0,6 C -1,7 C -2,8 C 77 % 0 lf 1017,0 hPa 0,0 l/m 0,00 h 0,00 h 0 W/m 10,0 km/h (2 Bft) 96,58 %
07.02.2018 19:00 -1,3 C -2,6 C -3,6 C 79 % 0 lf 1017,7 hPa 0,0 l/m 0,00 h 0,00 h 0 W/m 9,6 km/h (2 Bft) 96,30 %
07.02.2018 20:00 -1,9 C -3,2 C -4,1 C 81 % 0 lf 1018,0 hPa 0,0 l/m 0,00 h 0,00 h 0 W/m 7,8 km/h (2 Bft) 94,38 %
07.02.2018 21:00 -2,5 C -4,5 C -5,8 C 82 % 0 lf 1018,3 hPa 0,0 l/m 0,00 h 0,00 h 0 W/m 2,7 km/h (1 Bft) 98,08 %
07.02.2018 22:00 -3,5 C -5,4 C -6,7 C 82 % 0 lf 1018,6 hPa 0,0 l/m 0,00 h 0,00 h 0 W/m 2,2 km/h (1 Bft) 97,24 %
07.02.2018 23:00 -4,1 C -5,9 C -7,2 C 84 % 1 lf 1018,9 hPa 0,0 l/m 0,00 h 0,00 h 0 W/m 2,3 km/h (1 Bft) 97,41 %
08.02.2018 00:00 -4,7 C -6,5 C -7,3 C 85 % 1 lf 1019,0 hPa 0,0 l/m 0,00 h 0,00 h 0 W/m 0,5 km/h (0 Bft) 95,49 %
08.02.2018 01:00 -5,2 C -6,7 C -7,8 C 86 % 1 lf 1018,9 hPa 0,0 l/m 0,00 h 0,00 h 0 W/m 0,9 km/h (0 Bft) 94,85 %
08.02.2018 02:00 -5,4 C -6,9 C -7,8 C 88 % 1 lf 1019,0 hPa 0,0 l/m 0,00 h 0,00 h 0 W/m 1,4 km/h (1 Bft) 98,22 %
08.02.2018 03:00 -5,9 C -7,3 C -7,9 C 88 % 1 lf 1019,0 hPa 0,0 l/m 0,00 h 0,00 h 0 W/m 1,5 km/h (1 Bft) 95,51 %
08.02.2018 04:00 -6,2 C -7,8 C -8,3 C 89 % 1 lf 1019,1 hPa 0,0 l/m 0,00 h 0,00 h 0 W/m 0,7 km/h (0 Bft) 92,16 %
08.02.2018 05:00 -6,5 C -7,6 C -8,3 C 90 % 1 lf 1019,3 hPa 0,0 l/m 0,00 h 0,00 h 0 W/m 2,1 km/h (1 Bft) 97,44 %
08.02.2018 06:00 -6,7 C -7,8 C -8,3 C 91 % 1 lf 1019,4 hPa 0,0 l/m 0,00 h 0,00 h 0 W/m 3,9 km/h (1 Bft) 98,22 %
08.02.2018 07:00 -6,9 C -7,5 C -8,3 C 91 % 1 lf 1019,6 hPa 0,0 l/m 0,00 h 0,00 h 5 W/m 2,7 km/h (1 Bft) 93,93 %
08.02.2018 08:00 -7,0 C -6,7 C -7,6 C 92 % 1 lf 1020,1 hPa 0,0 l/m 0,40 h 0,00 h 39 W/m 2,7 km/h (1 Bft) 96,37 %
08.02.2018 09:00 -5,9 C -4,0 C -5,7 C 93 % 1 lf 1020,5 hPa 0,0 l/m 0,27 h 0,00 h 77 W/m 6,0 km/h (2 Bft) 98,37 %
08.02.2018 10:00 -3,7 C 6,2 C -4,3 C 94 % 1 lf 1020,6 hPa 0,0 l/m 0,83 h 0,00 h 251 W/m 5,6 km/h (1 Bft) 92,74 %
08.02.2018 11:00 -0,3 C 10,0 C -1,9 C 83 % 0 lf 1020,6 hPa 0,0 l/m 1,00 h 0,00 h 350 W/m 7,4 km/h (2 Bft) 96,72 %
08.02.2018 12:00 1,7 C 13,2 C -0,0 C 69 % 0 lf 1020,4 hPa 0,0 l/m 1,00 h 0,00 h 396 W/m 7,2 km/h (2 Bft) 96,46 %
08.02.2018 13:00 2,8 C 12,1 C 0,7 C 66 % 0 lf 1020,1 hPa 0,0 l/m 1,00 h 0,00 h 362 W/m 9,1 km/h (2 Bft) 98,56 %
08.02.2018 14:00 3,4 C 11,6 C 1,3 C 64 % 0 lf 1019,7 hPa 0,0 l/m 1,00 h 0,00 h 310 W/m 9,8 km/h (2 Bft) 97,02 %
08.02.2018 15:00 3,5 C 9,8 C 1,1 C 63 % 0 lf 1019,3 hPa 0,0 l/m 1,00 h 0,00 h 196 W/m 9,1 km/h (2 Bft) 98,72 %
08.02.2018 16:00 2,6 C 2,6 C 0,0 C 66 % 0 lf 1018,8 hPa 0,0 l/m 0,20 h 0,00 h 67 W/m 9,2 km/h (2 Bft) 96,59 %
08.02.2018 17:00 1,4 C 0,5 C -2,3 C 71 % 0 lf 1018,8 hPa 0,0 l/m 0,00 h 0,00 h 14 W/m 6,9 km/h (2 Bft) 96,37 %
08.02.2018 18:00 0,1 C -0,8 C -3,3 C 75 % 0 lf 1018,9 hPa 0,0 l/m 0,00 h 0,00 h 0 W/m 8,3 km/h (2 Bft) 97,72 %
08.02.2018 19:00 -0,8 C -1,2 C -3,9 C 78 % 0 lf 1018,9 hPa 0,0 l/m 0,00 h 0,00 h 0 W/m 8,2 km/h (2 Bft) 97,58 %
08.02.2018 20:00 -1,3 C -1,7 C -3,9 C 80 % 0 lf 1018,8 hPa 0,0 l/m 0,00 h 0,00 h 0 W/m 8,3 km/h (2 Bft) 92,82 %
08.02.2018 21:00 -1,7 C -2,1 C -4,0 C 80 % 0 lf 1018,4 hPa 0,0 l/m 0,00 h 0,00 h 0 W/m 8,2 km/h (2 Bft) 98,44 %
08.02.2018 22:00 -2,2 C -2,4 C -4,1 C 80 % 0 lf 1018,2 hPa 0,0 l/m 0,00 h 0,00 h 0 W/m 10,3 km/h (2 Bft) 96,87 %
08.02.2018 23:00 -2,6 C -3,1 C -4,7 C 81 % 0 lf 1017,7 hPa 0,0 l/m 0,00 h 0,00 h 0 W/m 8,8 km/h (2 Bft) 97,08 %
09.02.2018 00:00 -3,0 C -3,3 C -4,6 C 82 % 0 lf 1017,4 hPa 0,0 l/m 0,00 h 0,00 h 0 W/m 11,0 km/h (2 Bft) 95,39 %
09.02.2018 01:00 -3,2 C -3,3 C -4,8 C 84 % 0 lf 1017,2 hPa 0,0 l/m 0,00 h 0,00 h 0 W/m 10,4 km/h (2 Bft) 96,52 %
09.02.2018 02:00 -3,3 C -3,3 C -4,4 C 87 % 0 lf 1017,0 hPa 0,0 l/m 0,00 h 0,00 h 0 W/m 11,1 km/h (2 Bft) 95,72 %
09.02.2018 03:00 -3,0 C -3,0 C -3,9 C 89 % 0 lf 1016,5 hPa 0,0 l/m 0,00 h 0,00 h 0 W/m 13,8 km/h (3 Bft) 96,72 %
09.02.2018 04:00 -3,0 C -3,2 C -3,9 C 89 % 0 lf 1015,8 hPa 0,0 l/m 0,00 h 0,00 h 0 W/m 11,7 km/h (2 Bft) 96,70 %
09.02.2018 05:00 -3,1 C -3,3 C -4,0 C 89 % 0 lf 1015,4 hPa 0,0 l/m 0,00 h 0,00 h 0 W/m 13,6 km/h (3 Bft) 95,19 %
09.02.2018 06:00 -3,3 C -3,5 C -4,6 C 90 % 0 lf 1014,9 hPa 0,0 l/m 0,00 h 0,00 h 0 W/m 14,6 km/h (3 Bft) 96,57 %
09.02.2018 07:00 -3,8 C -4,0 C -5,5 C 90 % 1 lf 1014,5 hPa 0,0 l/m 0,00 h 0,00 h 8 W/m 12,2 km/h (2 Bft) 98,66 %
09.02.2018 08:00 -4,0 C -3,7 C -4,7 C 91 % 0 lf 1014,1 hPa 0,0 l/m 0,80 h 0,00 h 51 W/m 16,5 km/h (3 Bft) 94,57 %
09.02.2018 09:00 -3,2 C -1,4 C -3,0 C 90 % 0 lf 1013,8 hPa 0,0 l/m 1,00 h 0,00 h 196 W/m 20,7 km/h (4 Bft) 96,79 %
09.02.2018 10:00 -1,2 C 3,3 C -1,1 C 84 % 0 lf 1013,3 hPa 0,0 l/m 1,00 h 0,00 h 312 W/m 22,5 km/h (4 Bft) 96,58 %
09.02.2018 11:00 0,1 C 4,4 C -0,4 C 77 % 0 lf 1013,1 hPa 0,0 l/m 1,00 h 0,00 h 354 W/m 21,2 km/h (4 Bft) 97,01 %
09.02.2018 12:00 1,1 C 5,1 C 0,6 C 76 % 0 lf 1012,7 hPa 0,0 l/m 1,00 h 0,00 h 362 W/m 24,0 km/h (4 Bft) 96,91 %
09.02.2018 13:00 2,0 C 5,6 C 1,4 C 74 % 0 lf 1012,1 hPa 0,0 l/m 1,00 h 0,00 h 334 W/m 24,0 km/h (4 Bft) 95,97 %
09.02.2018 14:00 2,2 C 5,1 C 1,3 C 74 % 0 lf 1011,5 hPa 0,0 l/m 1,00 h 0,00 h 265 W/m 25,6 km/h (4 Bft) 98,05 %
09.02.2018 15:00 2,2 C 4,5 C 1,2 C 73 % 0 lf 1011,1 hPa 0,0 l/m 0,87 h 0,00 h 183 W/m 25,2 km/h (4 Bft) 95,29 %
09.02.2018 16:00 1,6 C 1,7 C 0,5 C 76 % 0 lf 1011,1 hPa 0,0 l/m 0,00 h 0,00 h 40 W/m 19,8 km/h (4 Bft) 98,33 %
09.02.2018 17:00 1,2 C 1,1 C 0,0 C 78 % 0 lf 1011,0 hPa 0,0 l/m 0,00 h 0,00 h 9 W/m 21,5 km/h (4 Bft) 97,16 %
09.02.2018 18:00 0,9 C 0,7 C -0,6 C 81 % 0 lf 1011,4 hPa 0,0 l/m 0,00 h 0,00 h 0 W/m 18,8 km/h (3 Bft) 95,65 %
09.02.2018 19:00 0,5 C 0,6 C -0,6 C 83 % 0 lf 1011,7 hPa 0,0 l/m 0,00 h 0,00 h 0 W/m 19,2 km/h (3 Bft) 95,46 %
09.02.2018 20:00 0,5 C 0,6 C -0,6 C 85 % 0 lf 1012,0 hPa 0,0 l/m 0,00 h 0,00 h 0 W/m 17,3 km/h (3 Bft) 98,30 %
09.02.2018 21:00 0,5 C 0,6 C -0,6 C 86 % 0 lf 1012,1 hPa 0,0 l/m 0,00 h 0,00 h 0 W/m 13,5 km/h (3 Bft) 96,30 %
09.02.2018 22:00 0,5 C 0,6 C -0,6 C 86 % 0 lf 1012,2 hPa 0,0 l/m 0,00 h 0,00 h 0 W/m 12,0 km/h (2 Bft) 96,01 %
09.02.2018 23:00 0,7 C 0,9 C -0,5 C 87 % 0 lf 1012,4 hPa 0,0 l/m 0,00 h 0,00 h 0 W/m 11,6 km/h (2 Bft) 95,87 %
10.02.2018 00:00 1,0 C 0,8 C -0,6 C 88 % 0 lf 1012,6 hPa 0,0 l/m 0,00 h 0,00 h 0 W/m 15,2 km/h (3 Bft) 96,40 %
10.02.2018 01:00 0,7 C 0,2 C -0,8 C 92 % 2 lf 1012,6 hPa 0,0 l/m 0,00 h 0,00 h 0 W/m 12,2 km/h (3 Bft) 97,44 %
10.02.2018 02:00 0,6 C 0,6 C -0,6 C 94 % 1 lf 1012,8 hPa 0,0 l/m 0,00 h 0,00 h 0 W/m 11,0 km/h (2 Bft) 96,87 %
10.02.2018 03:00 1,1 C 1,1 C -0,0 C 95 % 1 lf 1012,9 hPa 0,0 l/m 0,00 h 0,00 h 0 W/m 15,8 km/h (3 Bft) 94,31 %
10.02.2018 04:00 1,3 C 1,1 C 0,0 C 95 % 1 lf 1013,2 hPa 0,0 l/m 0,00 h 0,00 h 0 W/m 18,5 km/h (3 Bft) 97,65 %
10.02.2018 05:00 1,3 C 1,1 C 0,0 C 95 % 1 lf 1013,6 hPa 0,0 l/m 0,00 h 0,00 h 0 W/m 11,1 km/h (2 Bft) 95,99 %
10.02.2018 06:00 1,4 C 1,3 C 0,0 C 95 % 1 lf 1013,6 hPa 0,0 l/m 0,00 h 0,00 h 0 W/m 13,5 km/h (3 Bft) 94,41 %
10.02.2018 07:00 1,4 C 1,6 C 0,3 C 95 % 0 lf 1013,7 hPa 0,0 l/m 0,00 h 0,00 h 0 W/m 14,3 km/h (3 Bft) 97,44 %
10.02.2018 08:00 1,6 C 1,6 C 0,4 C 94 % 1 lf 1014,1 hPa 0,0 l/m 0,00 h 0,00 h 10 W/m 15,4 km/h (3 Bft) 95,96 %
10.02.2018 09:00 1,8 C 2,0 C 0,9 C 95 % 1 lf 1014,3 hPa 0,0 l/m 0,00 h 0,00 h 28 W/m 15,4 km/h (3 Bft) 97,68 %
10.02.2018 10:00 2,1 C 2,6 C 1,5 C 96 % 1 lf 1014,6 hPa 0,0 l/m 0,00 h 0,00 h 46 W/m 13,9 km/h (3 Bft) 97,24 %
10.02.2018 11:00 2,4 C 2,9 C 1,8 C 96 % 1 lf 1014,7 hPa 0,0 l/m 0,00 h 0,00 h 46 W/m 14,1 km/h (3 Bft) 94,24 %
10.02.2018 12:00 2,9 C 3,3 C 2,2 C 96 % 14 lf 1014,7 hPa 0,2 l/m 0,00 h 0,53 h 77 W/m 17,3 km/h (3 Bft) 97,19 %
10.02.2018 13:00 3,4 C 3,7 C 2,8 C 97 % 15 lf 1014,5 hPa 0,0 l/m 0,00 h 0,23 h 88 W/m 12,4 km/h (3 Bft) 98,91 %
10.02.2018 14:00 3,9 C 4,1 C 3,0 C 97 % 15 lf 1014,2 hPa 0,0 l/m 0,00 h 0,00 h 49 W/m 11,7 km/h (2 Bft) 93,31 %
10.02.2018 15:00 3,9 C 4,4 C 3,0 C 97 % 13 lf 1013,9 hPa 0,0 l/m 0,00 h 0,00 h 48 W/m 10,3 km/h (2 Bft) 98,08 %
10.02.2018 16:00 3,9 C 4,3 C 2,6 C 97 % 1 lf 1013,6 hPa 0,0 l/m 0,13 h 0,00 h 52 W/m 14,7 km/h (3 Bft) 97,65 %
10.02.2018 17:00 3,2 C 2,9 C 0,9 C 96 % 1 lf 1013,3 hPa 0,0 l/m 0,10 h 0,00 h 18 W/m 15,3 km/h (3 Bft) 95,31 %
10.02.2018 18:00 2,3 C 1,9 C -0,1 C 93 % 0 lf 1013,0 hPa 0,0 l/m 0,00 h 0,00 h 0 W/m 13,8 km/h (3 Bft) 95,80 %
10.02.2018 19:00 1,9 C 1,7 C -0,4 C 92 % 0 lf 1012,5 hPa 0,0 l/m 0,00 h 0,00 h 0 W/m 16,1 km/h (3 Bft) 94,95 %
10.02.2018 20:00 1,6 C 1,5 C -0,3 C 91 % 0 lf 1011,8 hPa 0,0 l/m 0,00 h 0,00 h 0 W/m 17,7 km/h (3 Bft) 96,09 %
10.02.2018 21:00 1,5 C 1,7 C 0,0 C 89 % 0 lf 1011,1 hPa 0,0 l/m 0,00 h 0,00 h 0 W/m 17,7 km/h (3 Bft) 98,15 %
10.02.2018 22:00 1,7 C 1,7 C 0,4 C 81 % 0 lf 1010,2 hPa 0,0 l/m 0,00 h 0,00 h 0 W/m 20,4 km/h (4 Bft) 95,16 %
10.02.2018 23:00 1,9 C 2,2 C 0,6 C 77 % 0 lf 1009,0 hPa 0,0 l/m 0,00 h 0,00 h 0 W/m 20,3 km/h (4 Bft) 95,02 %
11.02.2018 00:00 2,0 C 1,8 C 0,3 C 79 % 4 lf 1007,7 hPa 0,0 l/m 0,00 h 0,00 h 0 W/m 22,5 km/h (4 Bft) 97,06 %
11.02.2018 01:00 1,0 C 0,0 C -1,1 C 90 % 15 lf 1006,5 hPa 0,0 l/m 0,00 h 0,87 h 0 W/m 20,0 km/h (4 Bft) 96,15 %
11.02.2018 02:00 0,5 C 0,1 C -1,1 C 94 % 15 lf 1004,7 hPa 0,2 l/m 0,00 h 0,97 h 0 W/m 23,0 km/h (4 Bft) 96,02 %
11.02.2018 03:00 0,7 C 0,6 C -0,6 C 96 % 15 lf 1002,9 hPa 0,6 l/m 0,00 h 0,80 h 0 W/m 21,1 km/h (4 Bft) 94,45 %
11.02.2018 04:00 0,7 C 0,6 C -0,6 C 96 % 15 lf 1001,2 hPa 0,8 l/m 0,00 h 0,77 h 0 W/m 18,2 km/h (3 Bft) 97,79 %
11.02.2018 05:00 1,4 C 1,2 C 0,1 C 97 % 15 lf 999,9 hPa 1,4 l/m 0,00 h 1,00 h 0 W/m 18,7 km/h (3 Bft) 96,02 %
11.02.2018 06:00 2,4 C 2,5 C 1,1 C 97 % 15 lf 999,2 hPa 0,8 l/m 0,00 h 0,33 h 0 W/m 25,2 km/h (4 Bft) 95,80 %
11.02.2018 07:00 3,1 C 2,9 C 1,8 C 97 % 15 lf 998,6 hPa 0,2 l/m 0,00 h 0,43 h 0 W/m 29,4 km/h (5 Bft) 95,18 %
11.02.2018 08:00 4,0 C 3,3 C 2,2 C 96 % 15 lf 998,8 hPa 0,2 l/m 0,00 h 0,60 h 8 W/m 34,7 km/h (5 Bft) 96,68 %
11.02.2018 09:00 4,4 C 4,3 C 2,9 C 94 % 7 lf 999,3 hPa 0,0 l/m 0,00 h 0,40 h 59 W/m 33,9 km/h (5 Bft) 97,31 %
11.02.2018 10:00 5,0 C 5,6 C 3,6 C 93 % 0 lf 999,5 hPa 0,0 l/m 0,03 h 0,03 h 79 W/m 24,6 km/h (4 Bft) 95,59 %
11.02.2018 11:00 5,5 C 5,8 C 3,9 C 92 % 5 lf 999,8 hPa 0,0 l/m 0,03 h 0,30 h 74 W/m 26,9 km/h (4 Bft) 95,37 %
11.02.2018 12:00 4,7 C 4,2 C 3,1 C 93 % 15 lf 999,9 hPa 1,8 l/m 0,00 h 0,77 h 58 W/m 21,7 km/h (4 Bft) 98,36 %
11.02.2018 13:00 5,0 C 5,0 C 3,8 C 94 % 15 lf 1000,1 hPa 0,6 l/m 0,00 h 0,10 h 112 W/m 27,2 km/h (4 Bft) 96,01 %
11.02.2018 14:00 5,2 C 5,4 C 3,8 C 91 % 7 lf 1000,3 hPa 0,0 l/m 0,20 h 0,00 h 148 W/m 26,5 km/h (4 Bft) 95,16 %
11.02.2018 15:00 4,9 C 4,8 C 3,3 C 88 % 0 lf 1000,5 hPa 0,0 l/m 0,10 h 0,00 h 131 W/m 24,9 km/h (4 Bft) 97,45 %
11.02.2018 16:00 5,2 C 5,6 C 3,2 C 85 % 0 lf 1001,3 hPa 0,0 l/m 0,50 h 0,03 h 86 W/m 22,1 km/h (4 Bft) 96,37 %
11.02.2018 17:00 4,6 C 4,0 C 1,8 C 79 % 1 lf 1001,8 hPa 0,0 l/m 0,00 h 0,00 h 14 W/m 22,0 km/h (4 Bft) 96,99 %
11.02.2018 18:00 3,6 C 3,1 C 1,4 C 81 % 0 lf 1002,4 hPa 0,0 l/m 0,00 h 0,00 h 0 W/m 20,6 km/h (4 Bft) 95,52 %
11.02.2018 19:00 2,7 C 2,1 C 0,5 C 84 % 0 lf 1002,9 hPa 0,0 l/m 0,00 h 0,00 h 0 W/m 15,3 km/h (3 Bft) 95,16 %
11.02.2018 20:00 2,1 C 1,7 C 0,0 C 85 % 0 lf 1003,4 hPa 0,0 l/m 0,00 h 0,00 h 0 W/m 17,6 km/h (3 Bft) 98,07 %
11.02.2018 21:00 1,8 C 1,6 C 0,2 C 87 % 0 lf 1003,9 hPa 0,0 l/m 0,00 h 0,00 h 0 W/m 20,0 km/h (4 Bft) 98,36 %
11.02.2018 22:00 1,7 C 1,4 C 0,1 C 89 % 0 lf 1004,5 hPa 0,0 l/m 0,00 h 0,00 h 0 W/m 22,4 km/h (4 Bft) 93,63 %
11.02.2018 23:00 1,4 C 1,0 C -0,3 C 92 % 0 lf 1005,0 hPa 0,0 l/m 0,00 h 0,03 h 0 W/m 25,3 km/h (4 Bft) 97,91 %
Min-Datum _ 08.02.18 08.02.18 08.02.18 08.02.18 05.02.18 11.02.18 - - - - 07.02.18 08.02.18
_ Min-Zeit 08:14 06:56 06:48 14:46 00:00 07:50 - - - - 21:12 04:05
Minimum _ -7,1 C -8,3 C -8,9 C 63 % 0 lf 998,4 hPa - - - - 0,0 km/h (0 Bft) 6,25 %
Max-Datum _ 11.02.18 08.02.18 11.02.18 10.02.18 05.02.18 05.02.18 11.02.18 05.02.18 11.02.18 07.02.18 11.02.18 05.02.18
_ Max-Zeit 11:40 12:42 10:50 13:26 11:38 09:18 12:04 11:08 05:40 12:56 08:26 00:10
Maximum _ 5,7 C 15,0 C 4,4 C 97 % 15 lf 1026,0 hPa 1,8 l/m 0,07 h 0,08 h 457 W/m 51,8 km/h
W-SW (7 Bft)
100,00 %
Durchschnitt _ -0,2 C 0,6 C -1,6 C 86 % 2 lf 1014,5 hPa #7,2 l/m #28:24 h #8:12 h 137 W/m 15,3 km/h (3 Bft) 96,41 %
© 2018 W. Hausmann